| time (UTC) | temp C | wind direction | speed KPH | gust KPH | rain 1hr cm | rain 24hr cm | rain mn cm | humidity % | barometer mb |
| 20260831061508 | 22 | 189 | 1.6 | 12.9 | 0.00 | 0.00 | 0.00 | 96 | 1005.9 |
| 20260831061008 | 22 | 209 | 3.2 | 14.5 | 0.00 | 0.00 | 0.00 | 95 | 1006.0 |
| 20260831060506 | 22 | 246 | 4.8 | 14.5 | 0.00 | 0.00 | 0.00 | 95 | 1006.1 |
| 20260831060006 | 22 | 253 | 3.2 | 12.9 | 0.00 | 0.00 | 0.00 | 95 | 1006.1 |
| 20260831055506 | 22 | 262 | 4.8 | 11.3 | 0.00 | 0.00 | 0.00 | 95 | 1006.1 |
| 20260831055005 | 22 | 166 | 1.6 | 11.3 | 0.00 | 0.00 | 0.00 | 95 | 1006.1 |
| 20260831054505 | 22 | 166 | 3.2 | 11.3 | 0.00 | 0.00 | 0.00 | 94 | 1006.1 |
| 20260831054004 | 22 | 245 | 4.8 | 12.9 | 0.00 | 0.00 | 0.00 | 94 | 1006.1 |
| 20260831053503 | 22 | 174 | 4.8 | 12.9 | 0.00 | 0.00 | 0.00 | 94 | 1006.1 |
| 20260831053003 | 22 | 252 | 4.8 | 11.3 | 0.00 | 0.00 | 0.00 | 94 | 1006.2 |
| 20260831052502 | 22 | 253 | 3.2 | 11.3 | 0.00 | 0.00 | 0.00 | 93 | 1006.2 |
| 20260831052002 | 22 | 238 | 1.6 | 11.3 | 0.00 | 0.00 | 0.00 | 93 | 1006.3 |
| 20260831051601 | 22 | 218 | 3.2 | 11.3 | 0.00 | 0.00 | 0.00 | 93 | 1006.5 |
| 20260831051159 | 22 | 295 | 3.2 | 9.7 | 0.00 | 0.00 | 0.00 | 93 | 1006.5 |
| 20260831050558 | 22 | 238 | 1.6 | 11.3 | 0.00 | 0.00 | 0.00 | 92 | 1006.5 |
| 20260831050508 | 22 | 255 | 1.6 | 11.3 | 0.00 | 0.00 | 0.00 | 92 | 1006.5 |
| 20260831050122 | 22 | 270 | 1.6 | 11.3 | 0.00 | 0.00 | 0.00 | 92 | 1006.6 |
| 20260831045557 | 22 | 240 | 1.6 | 14.5 | 0.00 | 0.00 | 0.00 | 92 | 1006.7 |
| 20260831045058 | 22 | 243 | 3.2 | 14.5 | 0.00 | 0.00 | 0.00 | 92 | 1006.8 |
| 20260831044604 | 22 | 210 | 4.8 | 9.7 | 0.00 | 0.00 | 0.00 | 92 | 1006.9 |
| 20260831044056 | 22 | 224 | 1.6 | 11.3 | 0.00 | 0.00 | 0.00 | 91 | 1007.1 |
| 20260831043556 | 22 | 176 | 3.2 | 11.3 | 0.00 | 0.00 | 0.00 | 91 | 1007.2 |
| 20260831043056 | 22 | 190 | 3.2 | 11.3 | 0.00 | 0.00 | 0.00 | 91 | 1007.2 |
| 20260831042555 | 23 | 298 | 1.6 | 9.7 | 0.00 | 0.00 | 0.00 | 91 | 1007.3 |
| 20260831032049 | 23 | 182 | 4.8 | 16.1 | 0.00 | 0.00 | 0.00 | 88 | 1007.0 |
| 20260831031549 | 23 | 165 | 4.8 | 14.5 | 0.00 | 0.00 | 0.00 | 88 | 1007.0 |
| 20260831025043 | 24 | 132 | 3.2 | 12.9 | 0.00 | 0.00 | 0.00 | 87 | 1006.8 |
| 20260831024538 | 24 | 214 | 4.8 | 14.5 | 0.00 | 0.00 | 0.00 | 86 | 1006.7 |
| 20260831024030 | 24 | 156 | 4.8 | 14.5 | 0.00 | 0.00 | 0.00 | 86 | 1006.6 |
| 20260831023530 | 24 | 250 | 1.6 | 12.9 | 0.00 | 0.00 | 0.00 | 86 | 1006.6 |
| 20260831023032 | 24 | 127 | 3.2 | 12.9 | 0.00 | 0.00 | 0.00 | 86 | 1006.6 |
| 20260831022529 | 24 | 231 | 1.6 | 8.0 | 0.00 | 0.00 | 0.00 | 85 | 1006.6 |
| 20260831022029 | 25 | 165 | 3.2 | 11.3 | 0.00 | 0.00 | 0.00 | 86 | 1006.7 |
| 20260831021538 | 25 | 180 | 3.2 | 11.3 | 0.00 | 0.00 | 0.00 | 86 | 1006.6 |
| 20260831021029 | 25 | 153 | 1.6 | 9.7 | 0.00 | 0.00 | 0.00 | 86 | 1006.8 |
| 20260831020533 | 25 | 228 | 3.2 | 9.7 | 0.00 | 0.00 | 0.00 | 86 | 1006.8 |
| 20260831020032 | 25 | 152 | 1.6 | 9.7 | 0.00 | 0.00 | 0.00 | 87 | 1006.7 |
| 20260831015532 | 25 | 183 | 1.6 | 9.7 | 0.00 | 0.00 | 0.00 | 87 | 1006.8 |
| 20260831015028 | 25 | 236 | 0.0 | 9.7 | 0.00 | 0.00 | 0.00 | 87 | 1006.7 |
| 20260831014528 | 25 | 143 | 1.6 | 9.7 | 0.00 | 0.00 | 0.00 | 87 | 1006.7 |
| 20260831014030 | 25 | 214 | 0.0 | 6.4 | 0.00 | 0.00 | 0.00 | 86 | 1006.7 |
| 20260831013528 | 25 | 166 | 0.0 | 6.4 | 0.00 | 0.00 | 0.00 | 86 | 1006.6 |
| 20260831013028 | 25 | 109 | 0.0 | 6.4 | 0.00 | 0.00 | 0.00 | 85 | 1006.6 |
| 20260831012528 | 25 | 194 | 0.0 | 4.8 | 0.00 | 0.00 | 0.00 | 85 | 1006.6 |
| 20260831012027 | 25 | 95 | 0.0 | 4.8 | 0.00 | 0.00 | 0.00 | 85 | 1006.5 |
| 20260831011542 | 26 | 90 | 0.0 | 4.8 | 0.00 | 0.00 | 0.00 | 84 | 1006.4 |
| 20260831011027 | 26 | 100 | 0.0 | 1.6 | 0.00 | 0.00 | 0.00 | 83 | 1006.4 |
| 20260831010527 | 26 | 82 | 0.0 | 4.8 | 0.00 | 0.00 | 0.00 | 83 | 1006.5 |
| 20260831010029 | 26 | 85 | 0.0 | 6.4 | 0.00 | 0.00 | 0.00 | 83 | 1006.4 |
| 20260831005527 | 26 | 72 | 0.0 | 6.4 | 0.00 | 0.00 | 0.00 | 82 | 1006.3 |
| 20260831005027 | 26 | 86 | 1.6 | 6.4 | 0.00 | 0.00 | 0.00 | 82 | 1006.3 |
| 20260831004526 | 26 | 103 | 1.6 | 8.0 | 0.00 | 0.00 | 0.00 | 82 | 1006.3 |
| 20260831004026 | 26 | 100 | 1.6 | 8.0 | 0.00 | 0.00 | 0.00 | 81 | 1006.4 |
| 20260831001020 | 27 | 98 | 3.2 | 8.0 | 0.00 | 0.00 | 0.00 | 78 | 1006.4 |
| 20260831000519 | 27 | 83 | 3.2 | 11.3 | 0.00 | 0.00 | 0.00 | 78 | 1006.4 |
| 20260831000019 | 27 | 94 | 3.2 | 11.3 | 0.00 | 0.00 | 0.00 | 77 | 1006.3 |
| 20260830235518 | 27 | 93 | 4.8 | 11.3 | 0.00 | 0.00 | 0.00 | 77 | 1006.3 |
| 20260830235018 | 27 | 99 | 1.6 | 9.7 | 0.00 | 0.00 | 0.00 | 77 | 1006.3 |
| 20260830234518 | 27 | 106 | 3.2 | 9.7 | 0.00 | 0.00 | 0.00 | 77 | 1006.3 |
| 20260830234021 | 27 | 93 | 3.2 | 12.9 | 0.00 | 0.00 | 0.00 | 76 | 1006.3 |
| 20260830233517 | 27 | 114 | 4.8 | 16.1 | 0.00 | 0.00 | 0.00 | 76 | 1006.2 |
| 20260830233022 | 27 | 93 | 4.8 | 11.3 | 0.00 | 0.00 | 0.00 | 76 | 1006.1 |
| 20260830232516 | 28 | 95 | 1.6 | 19.3 | 0.00 | 0.00 | 0.00 | 75 | 1006.2 |
| 20260830232015 | 28 | 250 | 4.8 | 19.3 | 0.00 | 0.00 | 0.00 | 75 | 1006.2 |
| 20260830231516 | 28 | 84 | 3.2 | 14.5 | 0.00 | 0.00 | 0.00 | 75 | 1006.2 |
| 20260830231018 | 28 | 87 | 6.4 | 14.5 | 0.00 | 0.00 | 0.00 | 74 | 1006.4 |
| 20260830230515 | 28 | 96 | 1.6 | 11.3 | 0.00 | 0.00 | 0.00 | 76 | 1006.5 |
| 20260830230015 | 28 | 77 | 0.0 | 11.3 | 0.00 | 0.00 | 0.00 | 75 | 1006.4 |
| 20260830225515 | 28 | 72 | 0.0 | 12.9 | 0.00 | 0.00 | 0.00 | 76 | 1006.3 |
| 20260830225014 | 28 | 96 | 3.2 | 12.9 | 0.00 | 0.00 | 0.00 | 75 | 1006.2 |
| 20260830224518 | 28 | 86 | 3.2 | 11.3 | 0.00 | 0.00 | 0.00 | 73 | 1006.3 |
| 20260830224013 | 28 | 71 | 1.6 | 11.3 | 0.00 | 0.00 | 0.00 | 74 | 1006.3 |
| 20260830223513 | 28 | 124 | 3.2 | 9.7 | 0.00 | 0.00 | 0.00 | 74 | 1006.3 |
| 20260830223012 | 28 | 119 | 1.6 | 12.9 | 0.00 | 0.00 | 0.00 | 75 | 1006.2 |
| 20260830222511 | 28 | 316 | 3.2 | 12.9 | 0.00 | 0.00 | 0.00 | 75 | 1006.2 |
| 20260830222009 | 28 | 103 | 1.6 | 9.7 | 0.00 | 0.00 | 0.00 | 76 | 1006.3 |
| 20260830221509 | 28 | 104 | 1.6 | 12.9 | 0.00 | 0.00 | 0.00 | 76 | 1006.3 |
| 20260830221009 | 28 | 122 | 4.8 | 12.9 | 0.00 | 0.00 | 0.00 | 76 | 1006.3 |
| 20260830220508 | 28 | 132 | 3.2 | 11.3 | 0.00 | 0.00 | 0.00 | 76 | 1006.3 |
| 20260830220007 | 27 | 357 | 1.6 | 14.5 | 0.00 | 0.00 | 0.00 | 77 | 1006.4 |
| 20260830215507 | 27 | 153 | 4.8 | 14.5 | 0.00 | 0.00 | 0.00 | 76 | 1006.5 |
| 20260830215004 | 27 | 75 | 1.6 | 14.5 | 0.00 | 0.00 | 0.00 | 78 | 1006.6 |
| 20260830214504 | 27 | 86 | 3.2 | 20.9 | 0.00 | 0.00 | 0.00 | 78 | 1006.6 |
| 20260830214003 | 27 | 115 | 6.4 | 20.9 | 0.00 | 0.00 | 0.00 | 77 | 1006.7 |
| 20260830213503 | 27 | 47 | 6.4 | 11.3 | 0.00 | 0.00 | 0.00 | 77 | 1006.7 |
| 20260830213005 | 27 | 106 | 1.6 | 12.9 | 0.00 | 0.00 | 0.00 | 79 | 1006.6 |
| 20260830212500 | 27 | 98 | 3.2 | 17.7 | 0.00 | 0.00 | 0.00 | 79 | 1006.6 |
| 20260830212101 | 27 | 89 | 9.7 | 17.7 | 0.00 | 0.00 | 0.00 | 78 | 1006.7 |
| 20260830211603 | 27 | 79 | 1.6 | 16.1 | 0.00 | 0.00 | 0.00 | 79 | 1006.8 |
| 20260830211057 | 27 | 106 | 6.4 | 16.1 | 0.00 | 0.00 | 0.00 | 79 | 1006.8 |
| 20260830210558 | 27 | 93 | 4.8 | 14.5 | 0.00 | 0.00 | 0.00 | 81 | 1006.9 |
| 20260830210056 | 26 | 99 | 6.4 | 19.3 | 0.00 | 0.00 | 0.00 | 79 | 1007.0 |
| 20260830205556 | 27 | 86 | 6.4 | 19.3 | 0.00 | 0.00 | 0.00 | 80 | 1007.2 |
| 20260830205055 | 26 | 122 | 9.7 | 22.5 | 0.00 | 0.00 | 0.00 | 79 | 1007.1 |
| 20260830204555 | 26 | 79 | 9.7 | 22.5 | 0.00 | 0.00 | 0.00 | 79 | 1007.1 |
| 20260830204055 | 27 | 93 | 4.8 | 17.7 | 0.00 | 0.00 | 0.00 | 79 | 1007.3 |
| 20260830203553 | 27 | 117 | 9.7 | 19.3 | 0.00 | 0.00 | 0.00 | 80 | 1007.2 |
| 20260830203052 | 26 | 95 | 6.4 | 16.1 | 0.00 | 0.00 | 0.00 | 79 | 1007.2 |
| 20260830202554 | 26 | 115 | 4.8 | 12.9 | 0.00 | 0.00 | 0.00 | 81 | 1007.2 |
| 20260830202048 | 26 | 136 | 3.2 | 19.3 | 0.00 | 0.00 | 0.00 | 82 | 1007.0 |
| 20260830201549 | 26 | 123 | 8.0 | 19.3 | 0.00 | 0.00 | 0.00 | 81 | 1007.1 |
| 20260830201047 | 26 | 174 | 3.2 | 19.3 | 0.00 | 0.00 | 0.00 | 84 | 1007.3 |
| 20260830200546 | 25 | 105 | 11.3 | 19.3 | 0.00 | 0.00 | 0.00 | 82 | 1007.2 |
| 20260830200046 | 25 | 70 | 9.7 | 14.5 | 0.00 | 0.00 | 0.00 | 82 | 1007.1 |
| 20260830195548 | 25 | 107 | 6.4 | 16.1 | 0.00 | 0.00 | 0.00 | 82 | 1007.0 |
| 20260830195046 | 25 | 103 | 9.7 | 19.3 | 0.00 | 0.00 | 0.00 | 84 | 1007.0 |
| 20260830194557 | 25 | 104 | 12.9 | 20.9 | 0.00 | 0.00 | 0.00 | 83 | 1007.2 |
| 20260830194044 | 25 | 58 | 11.3 | 20.9 | 0.00 | 0.00 | 0.00 | 83 | 1007.1 |
| 20260830193543 | 25 | 99 | 11.3 | 20.9 | 0.00 | 0.00 | 0.00 | 83 | 1007.2 |
| 20260830193054 | 25 | 115 | 11.3 | 22.5 | 0.00 | 0.00 | 0.00 | 84 | 1007.2 |
| 20260830192540 | 25 | 126 | 11.3 | 22.5 | 0.00 | 0.00 | 0.00 | 85 | 1007.3 |
| 20260830192043 | 25 | 94 | 14.5 | 22.5 | 0.00 | 0.00 | 0.00 | 84 | 1007.4 |
| 20260830191539 | 25 | 98 | 9.7 | 20.9 | 0.00 | 0.00 | 0.00 | 85 | 1007.5 |
| 20260830191038 | 25 | 96 | 9.7 | 19.3 | 0.00 | 0.00 | 0.00 | 84 | 1007.5 |
| 20260830190538 | 25 | 103 | 12.9 | 20.9 | 0.00 | 0.00 | 0.00 | 84 | 1007.7 |
| 20260830190037 | 25 | 117 | 9.7 | 20.9 | 0.00 | 0.00 | 0.00 | 85 | 1007.9 |
| 20260830185537 | 25 | 82 | 9.7 | 19.3 | 0.00 | 0.00 | 0.00 | 85 | 1007.9 |
| 20260830185037 | 25 | 94 | 8.0 | 16.1 | 0.00 | 0.00 | 0.00 | 85 | 1007.9 |
| 20260830184536 | 24 | 115 | 6.4 | 16.1 | 0.00 | 0.00 | 0.00 | 87 | 1008.0 |
| 20260830184034 | 24 | 86 | 9.7 | 20.9 | 0.00 | 0.00 | 0.00 | 86 | 1008.3 |
| 20260830183537 | 24 | 155 | 11.3 | 20.9 | 0.00 | 0.00 | 0.00 | 86 | 1008.4 |
| 20260830183034 | 24 | 112 | 6.4 | 14.5 | 0.00 | 0.00 | 0.00 | 88 | 1008.5 |
| 20260830182532 | 23 | 132 | 1.6 | 11.3 | 0.00 | 0.00 | 0.00 | 89 | 1008.7 |
| 20260830182030 | 23 | 90 | 0.0 | 11.3 | 0.00 | 0.00 | 0.00 | 91 | 1008.8 |
| 20260830181529 | 22 | 113 | 3.2 | 12.9 | 0.00 | 0.00 | 0.00 | 90 | 1008.8 |
| 20260830181032 | 22 | 92 | 3.2 | 12.9 | 0.00 | 0.00 | 0.00 | 90 | 1008.9 |
| 20260830180525 | 22 | 75 | 4.8 | 14.5 | 0.00 | 0.00 | 0.00 | 90 | 1009.0 |
| 20260830180025 | 22 | 110 | 6.4 | 16.1 | 0.00 | 0.00 | 0.00 | 90 | 1008.7 |
| 20260830175523 | 22 | 77 | 6.4 | 16.1 | 0.00 | 0.00 | 0.00 | 90 | 1008.7 |
| 20260830175022 | 22 | 132 | 6.4 | 19.3 | 0.00 | 0.00 | 0.00 | 90 | 1008.6 |
| 20260830174522 | 22 | 91 | 6.4 | 19.3 | 0.00 | 0.00 | 0.00 | 91 | 1008.6 |
| 20260830174018 | 22 | 86 | 8.0 | 14.5 | 0.00 | 0.00 | 0.00 | 91 | 1008.7 |
| 20260830173516 | 22 | 121 | 6.4 | 12.9 | 0.00 | 0.00 | 0.00 | 92 | 1008.6 |
| 20260830173015 | 22 | 113 | 1.6 | 11.3 | 0.00 | 0.00 | 0.00 | 93 | 1008.6 |
| 20260830172515 | 21 | 97 | 4.8 | 12.9 | 0.00 | 0.00 | 0.00 | 93 | 1008.7 |
| 20260830172018 | 21 | 89 | 6.4 | 12.9 | 0.00 | 0.00 | 0.00 | 93 | 1008.7 |
| 20260830171513 | 21 | 115 | 6.4 | 12.9 | 0.00 | 0.00 | 0.00 | 93 | 1008.7 |
| 20260830171012 | 21 | 117 | 4.8 | 11.3 | 0.00 | 0.00 | 0.00 | 93 | 1008.8 |
| 20260830170513 | 21 | 84 | 4.8 | 9.7 | 0.00 | 0.00 | 0.00 | 93 | 1008.9 |
| 20260830170015 | 21 | 111 | 6.4 | 12.9 | 0.00 | 0.00 | 0.00 | 93 | 1008.9 |
| 20260830165511 | 21 | 103 | 6.4 | 20.9 | 0.00 | 0.00 | 0.00 | 93 | 1008.9 |
| 20260830165014 | 21 | 110 | 8.0 | 20.9 | 0.00 | 0.00 | 0.00 | 93 | 1008.8 |
| 20260830164510 | 21 | 67 | 9.7 | 22.5 | 0.00 | 0.00 | 0.00 | 93 | 1008.8 |
| 20260830164010 | 21 | 111 | 6.4 | 16.1 | 0.00 | 0.00 | 0.00 | 93 | 1008.7 |
| 20260830163510 | 21 | 81 | 9.7 | 16.1 | 0.00 | 0.00 | 0.00 | 93 | 1008.7 |
| 20260830163009 | 21 | 89 | 9.7 | 16.1 | 0.00 | 0.00 | 0.00 | 93 | 1008.6 |
| 20260830162514 | 21 | 117 | 8.0 | 14.5 | 0.00 | 0.00 | 0.00 | 94 | 1008.5 |
| 20260830162012 | 21 | 65 | 9.7 | 14.5 | 0.00 | 0.00 | 0.00 | 93 | 1008.4 |
| 20260830161507 | 21 | 117 | 8.0 | 14.5 | 0.00 | 0.00 | 0.00 | 94 | 1008.4 |
| 20260830161007 | 21 | 90 | 11.3 | 16.1 | 0.00 | 0.00 | 0.00 | 94 | 1008.5 |
| 20260830160507 | 21 | 84 | 11.3 | 16.1 | 0.00 | 0.00 | 0.00 | 94 | 1008.5 |
| 20260830160006 | 21 | 140 | 9.7 | 16.1 | 0.00 | 0.00 | 0.00 | 94 | 1008.5 |
| 20260830155506 | 21 | 98 | 8.0 | 20.9 | 0.00 | 0.00 | 0.00 | 94 | 1008.5 |
| 20260830155005 | 21 | 69 | 9.7 | 20.9 | 0.00 | 0.00 | 0.00 | 95 | 1008.2 |
| 20260830154504 | 20 | 117 | 9.7 | 14.5 | 0.00 | 0.00 | 0.00 | 95 | 1008.3 |
| 20260830154003 | 20 | 85 | 6.4 | 14.5 | 0.00 | 0.00 | 0.00 | 96 | 1008.3 |
| 20260830153501 | 20 | 98 | 8.0 | 14.5 | 0.00 | 0.00 | 0.00 | 96 | 1008.5 |
| 20260830153001 | 20 | 90 | 8.0 | 14.5 | 0.00 | 0.00 | 0.00 | 96 | 1008.3 |
| 20260830152503 | 20 | 20 | 11.3 | 14.5 | 0.00 | 0.00 | 0.00 | 97 | 1008.4 |
| 20260830152100 | 20 | 101 | 8.0 | 17.7 | 0.00 | 0.00 | 0.00 | 97 | 1008.4 |
| 20260830151610 | 20 | 79 | 6.4 | 17.7 | 0.00 | 0.00 | 0.00 | 96 | 1008.4 |
| 20260830151059 | 20 | 76 | 6.4 | 12.9 | 0.00 | 0.00 | 0.00 | 97 | 1008.6 |
| 20260830150601 | 20 | 86 | 6.4 | 12.9 | 0.00 | 0.00 | 0.00 | 97 | 1008.6 |
| 20260830150104 | 20 | 147 | 6.4 | 16.1 | 0.00 | 0.00 | 0.00 | 97 | 1008.6 |
| 20260830145600 | 20 | 79 | 8.0 | 16.1 | 0.00 | 0.00 | 0.00 | 97 | 1008.5 |
| 20260830145058 | 20 | 58 | 6.4 | 12.9 | 0.00 | 0.00 | 0.00 | 98 | 1008.3 |
| 20260830144556 | 19 | 64 | 8.0 | 12.9 | 0.00 | 0.00 | 0.00 | 98 | 1008.3 |
| 20260830144055 | 19 | 61 | 8.0 | 12.9 | 0.00 | 0.00 | 0.00 | 98 | 1008.4 |
| 20260830143555 | 19 | 82 | 4.8 | 12.9 | 0.00 | 0.00 | 0.00 | 99 | 1008.7 |
| 20260830143058 | 19 | 110 | 6.4 | 14.5 | 0.00 | 0.00 | 0.00 | 99 | 1008.8 |
| 20260830142555 | 19 | 67 | 4.8 | 14.5 | 0.00 | 0.00 | 0.00 | 99 | 1008.7 |
| 20260830142058 | 18 | 81 | 8.0 | 12.9 | 0.00 | 0.00 | 0.00 | 99 | 1008.5 |
| 20260830141555 | 18 | 81 | 8.0 | 11.3 | 0.00 | 0.00 | 0.00 | 99 | 1008.6 |
| 20260830141108 | 18 | 118 | 6.4 | 12.9 | 0.00 | 0.00 | 0.00 | 99 | 1008.7 |
| 20260830140553 | 18 | 101 | 4.8 | 9.7 | 0.00 | 0.00 | 0.00 | 100 | 1008.9 |
| 20260830140053 | 18 | 92 | 0.0 | 8.0 | 0.00 | 0.00 | 0.00 | 100 | 1009.0 |
| 20260830140023 | 18 | 113 | 1.6 | 8.0 | 0.00 | 0.00 | 0.00 | 100 | 1009.0 |
| 20260830135555 | 18 | 132 | 1.6 | 8.0 | 0.00 | 0.00 | 0.00 | 100 | 1008.9 |
| 20260830135053 | 18 | 121 | 4.8 | 12.9 | 0.00 | 0.00 | 0.00 | 100 | 1008.8 |
| 20260830134552 | 18 | 103 | 4.8 | 16.1 | 0.00 | 0.00 | 0.00 | 100 | 1008.8 |
| 20260830134055 | 18 | 94 | 4.8 | 16.1 | 0.00 | 0.00 | 0.00 | 100 | 1008.7 |
| 20260830133551 | 18 | 77 | 4.8 | 12.9 | 0.00 | 0.00 | 0.00 | 100 | 1008.6 |
| 20260830133056 | 18 | 87 | 6.4 | 11.3 | 0.00 | 0.00 | 0.00 | 100 | 1008.6 |
| 20260830132550 | 18 | 107 | 6.4 | 11.3 | 0.00 | 0.00 | 0.00 | 100 | 1008.7 |
| 20260830132054 | 18 | 81 | 4.8 | 12.9 | 0.00 | 0.00 | 0.00 | 100 | 1008.6 |
| 20260830131554 | 18 | 92 | 4.8 | 9.7 | 0.00 | 0.00 | 0.00 | 100 | 1008.6 |
| 20260830131052 | 18 | 87 | 6.4 | 9.7 | 0.00 | 0.00 | 0.00 | 100 | 1008.6 |
| 20260830130549 | 18 | 40 | 4.8 | 11.3 | 0.00 | 0.00 | 0.00 | 100 | 1008.6 |
| 20260830130057 | 18 | 98 | 6.4 | 11.3 | 0.00 | 0.00 | 0.00 | 100 | 1008.4 |
| 20260830130022 | 18 | 68 | 6.4 | 11.3 | 0.00 | 0.00 | 0.00 | 100 | 1008.4 |
| 20260830125549 | 18 | 106 | 6.4 | 12.9 | 0.00 | 0.00 | 0.00 | 100 | 1008.4 |
| 20260830125052 | 18 | 73 | 6.4 | 12.9 | 0.00 | 0.00 | 0.00 | 100 | 1008.2 |
| 20260830124046 | 18 | 163 | 4.8 | 11.3 | 0.00 | 0.00 | 0.00 | 100 | 1008.6 |
| 20260830123544 | 18 | 111 | 6.4 | 9.7 | 0.00 | 0.00 | 0.00 | 100 | 1008.5 |
| 20260830123043 | 18 | 110 | 4.8 | 11.3 | 0.00 | 0.00 | 0.00 | 100 | 1008.4 |
| 20260830122545 | 18 | 81 | 8.0 | 11.3 | 0.00 | 0.00 | 0.00 | 100 | 1008.1 |
| 20260830122042 | 18 | 66 | 6.4 | 9.7 | 0.00 | 0.00 | 0.00 | 100 | 1008.1 |
| 20260830121541 | 18 | 110 | 6.4 | 11.3 | 0.00 | 0.00 | 0.00 | 100 | 1008.1 |
| 20260830121044 | 18 | 85 | 6.4 | 11.3 | 0.00 | 0.00 | 0.00 | 100 | 1008.1 |
| 20260830120539 | 18 | 71 | 6.4 | 9.7 | 0.00 | 0.00 | 0.00 | 100 | 1008.1 |
| 20260830120044 | 18 | 96 | 4.8 | 9.7 | 0.00 | 0.00 | 0.00 | 100 | 1008.2 |
| 20260830115538 | 18 | 81 | 3.2 | 9.7 | 0.00 | 0.13 | 0.00 | 100 | 1008.5 |
| 20260830115038 | 18 | 77 | 1.6 | 3.2 | 0.00 | 0.13 | 0.00 | 100 | 1008.5 |
| 20260830114548 | 18 | 117 | 0.0 | 6.4 | 0.00 | 0.13 | 0.00 | 100 | 1008.5 |
| 20260830114036 | 18 | 81 | 0.0 | 9.7 | 0.00 | 0.13 | 0.00 | 100 | 1008.1 |
| 20260830113534 | 18 | 88 | 4.8 | 9.7 | 0.00 | 0.13 | 0.00 | 100 | 1007.6 |
| 20260830113034 | 18 | 77 | 6.4 | 11.3 | 0.00 | 0.13 | 0.00 | 100 | 1007.5 |
| 20260830112533 | 18 | 84 | 6.4 | 12.9 | 0.00 | 0.13 | 0.00 | 100 | 1007.7 |
| 20260830112033 | 18 | 87 | 4.8 | 11.3 | 0.00 | 0.13 | 0.00 | 100 | 1007.9 |
| 20260830111532 | 18 | 94 | 3.2 | 11.3 | 0.00 | 0.13 | 0.00 | 100 | 1007.8 |
| 20260830111032 | 18 | 83 | 3.2 | 8.0 | 0.00 | 0.13 | 0.00 | 100 | 1007.8 |
| 20260830110531 | 18 | 138 | 4.8 | 8.0 | 0.00 | 0.13 | 0.00 | 100 | 1007.9 |
| 20260830110033 | 18 | 70 | 4.8 | 8.0 | 0.00 | 0.13 | 0.00 | 100 | 1008.1 |
| 20260830105530 | 18 | 96 | 1.6 | 6.4 | 0.00 | 0.43 | 0.00 | 100 | 1008.2 |
| 20260830105030 | 18 | 81 | 1.6 | 6.4 | 0.00 | 0.43 | 0.00 | 100 | 1008.5 |
| 20260830104630 | 18 | 114 | 0.0 | 4.8 | 0.00 | 0.43 | 0.00 | 100 | 1008.5 |
| 20260830104029 | 18 | 73 | 0.0 | 8.0 | 0.00 | 0.43 | 0.00 | 100 | 1008.6 |
| 20260830103529 | 18 | 107 | 3.2 | 8.0 | 0.00 | 0.43 | 0.00 | 100 | 1008.2 |
| 20260830103028 | 18 | 89 | 3.2 | 4.8 | 0.00 | 0.43 | 0.00 | 100 | 1008.3 |
| 20260830102531 | 18 | 92 | 3.2 | 4.8 | 0.00 | 0.43 | 0.00 | 100 | 1008.3 |
| 20260830102028 | 18 | 68 | 1.6 | 6.4 | 0.00 | 0.43 | 0.00 | 100 | 1008.3 |
| 20260830101526 | 18 | 56 | 3.2 | 6.4 | 0.00 | 0.43 | 0.00 | 100 | 1008.3 |
| 20260830101027 | 18 | 81 | 1.6 | 6.4 | 0.00 | 0.43 | 0.00 | 100 | 1008.3 |
| 20260830100527 | 18 | 105 | 3.2 | 6.4 | 0.00 | 0.43 | 0.00 | 100 | 1008.3 |
| 20260830100031 | 18 | 71 | 0.0 | 6.4 | 0.00 | 0.56 | 0.00 | 100 | 1008.4 |
| 20260830095527 | 18 | 79 | 1.6 | 4.8 | 0.00 | 0.56 | 0.00 | 100 | 1008.3 |
| 20260830095027 | 18 | 88 | 1.6 | 4.8 | 0.00 | 0.56 | 0.00 | 100 | 1008.2 |
| 20260830094526 | 18 | 101 | 0.0 | 4.8 | 0.00 | 0.56 | 0.00 | 100 | 1008.3 |
| 20260830094025 | 18 | 120 | 1.6 | 4.8 | 0.00 | 0.56 | 0.00 | 100 | 1008.2 |
| 20260830093525 | 18 | 96 | 1.6 | 3.2 | 0.00 | 0.56 | 0.00 | 100 | 1008.3 |
| 20260830093027 | 18 | 104 | 0.0 | 4.8 | 0.00 | 0.56 | 0.00 | 100 | 1008.2 |
| 20260830092525 | 18 | 65 | 1.6 | 4.8 | 0.00 | 0.56 | 0.00 | 100 | 1008.2 |
| 20260830092028 | 18 | 91 | 1.6 | 4.8 | 0.00 | 0.56 | 0.00 | 100 | 1007.9 |
| 20260830091535 | 18 | 82 | 0.0 | 8.0 | 0.00 | 0.56 | 0.00 | 100 | 1007.8 |
| 20260830091024 | 18 | 94 | 3.2 | 8.0 | 0.00 | 0.56 | 0.00 | 100 | 1007.7 |
| 20260830090524 | 18 | 86 | 6.4 | 9.7 | 0.00 | 0.56 | 0.00 | 100 | 1007.7 |
| 20260830090024 | 18 | 117 | 4.8 | 9.7 | 0.00 | 0.58 | 0.00 | 100 | 1007.7 |
| 20260830085525 | 18 | 70 | 3.2 | 6.4 | 0.00 | 0.58 | 0.00 | 100 | 1007.8 |
| 20260830085022 | 18 | 94 | 1.6 | 6.4 | 0.00 | 0.58 | 0.00 | 100 | 1008.1 |
| 20260830084537 | 18 | 98 | 1.6 | 8.0 | 0.00 | 0.58 | 0.00 | 100 | 1008.1 |
| 20260830084021 | 18 | 117 | 3.2 | 8.0 | 0.00 | 0.58 | 0.00 | 100 | 1008.1 |
| 20260830083523 | 18 | 75 | 4.8 | 9.7 | 0.00 | 0.58 | 0.00 | 100 | 1008.1 |
| 20260830083021 | 18 | 91 | 4.8 | 8.0 | 0.00 | 0.58 | 0.00 | 100 | 1008.1 |
| 20260830082519 | 18 | 105 | 4.8 | 8.0 | 0.00 | 0.58 | 0.00 | 100 | 1008.1 |
| 20260830082019 | 18 | 83 | 3.2 | 6.4 | 0.00 | 0.58 | 0.00 | 100 | 1008.3 |
| 20260830081519 | 18 | 88 | 3.2 | 6.4 | 0.00 | 0.58 | 0.00 | 100 | 1008.2 |
| 20260830081021 | 18 | 108 | 3.2 | 8.0 | 0.00 | 0.58 | 0.00 | 100 | 1008.2 |
| 20260830080520 | 18 | 107 | 3.2 | 8.0 | 0.00 | 0.58 | 0.00 | 100 | 1008.2 |
| 20260830080019 | 18 | 79 | 3.2 | 6.4 | 0.00 | 0.58 | 0.00 | 99 | 1008.1 |
| 20260830075516 | 18 | 77 | 3.2 | 6.4 | 0.00 | 0.58 | 0.00 | 99 | 1008.2 |
| 20260830075015 | 18 | 92 | 3.2 | 8.0 | 0.00 | 0.58 | 0.00 | 99 | 1008.3 |
| 20260830074516 | 18 | 82 | 4.8 | 8.0 | 0.00 | 0.58 | 0.00 | 99 | 1008.4 |
| 20260830074014 | 18 | 72 | 3.2 | 8.0 | 0.00 | 0.58 | 0.00 | 99 | 1008.6 |
| 20260830073513 | 18 | 81 | 1.6 | 6.4 | 0.00 | 0.58 | 0.00 | 99 | 1008.5 |
| 20260830073013 | 18 | 91 | 1.6 | 6.4 | 0.00 | 0.58 | 0.00 | 99 | 1008.6 |
| 20260830072513 | 18 | 72 | 3.2 | 9.7 | 0.00 | 0.58 | 0.00 | 99 | 1008.6 |
| 20260830072013 | 18 | 75 | 3.2 | 6.4 | 0.00 | 0.58 | 0.00 | 99 | 1008.5 |
| 20260830071512 | 18 | 94 | 3.2 | 6.4 | 0.00 | 0.58 | 0.00 | 99 | 1008.5 |
| 20260830071011 | 18 | 78 | 3.2 | 4.8 | 0.00 | 0.58 | 0.00 | 99 | 1008.6 |
| 20260830070511 | 18 | 91 | 3.2 | 4.8 | 0.00 | 0.58 | 0.00 | 99 | 1008.7 |
| 20260830070010 | 18 | 90 | 0.0 | 4.8 | 0.00 | 0.58 | 0.00 | 99 | 1008.7 |
| 20260830065514 | 18 | 84 | 1.6 | 6.4 | 0.00 | 0.58 | 0.00 | 99 | 1008.8 |
| 20260830065010 | 18 | 87 | 0.0 | 8.0 | 0.00 | 0.58 | 0.00 | 99 | 1008.7 |
| 20260830064510 | 18 | 88 | 4.8 | 11.3 | 0.00 | 0.58 | 0.00 | 99 | 1008.5 |
| 20260830064010 | 18 | 95 | 4.8 | 11.3 | 0.00 | 0.58 | 0.00 | 99 | 1008.5 |
| 20260830063509 | 18 | 87 | 3.2 | 6.4 | 0.00 | 0.58 | 0.00 | 98 | 1008.7 |
| 20260830063008 | 18 | 88 | 3.2 | 8.0 | 0.00 | 0.58 | 0.00 | 98 | 1008.7 |
| 20260830062508 | 18 | 89 | 3.2 | 6.4 | 0.00 | 0.58 | 0.00 | 98 | 1008.7 |
| 20260830062010 | 18 | 103 | 3.2 | 6.4 | 0.00 | 0.58 | 0.00 | 98 | 1008.7 |